Weather observations for the past three days for
Milton, Whiting Field South
Imperial (Metric)
Date Time (cdt) Wind (mph) Vis. (mi.) Weather Sky Cond. Temperature (ºF) Relative Humidity Wind Chill (°F) Heat Index (°F) Pressure Precipitation (in)
Air Dwpt 6 hour altimeter (in) sea level (mb) 1 hr 3 hr 6 hr
Max. Min.
15 08:56 NE 5 10.00 Mostly Cloudy FEW040 BKN100 BKN250 82 71.1 69% 86 30.12 1018.2
15 07:56 N 7 10.00 Mostly Cloudy FEW040 SCT100 BKN250 80.1 70 71% 83 30.12 1018.3
15 06:56 Vrbl 3 10.00 Mostly Cloudy FEW040 SCT100 BKN250 79 72 80.1 75 79% 82 30.09 1017.3
15 05:56 Calm 5.00 Fog/Mist FEW040 SCT090 SCT250 75 72 90% 74 30.08 1017.0
15 02:56 NE 3 10.00 Fair CLR 78.1 73.9 87% 81 30.04 1015.5
15 01:56 Calm 10.00 Fair CLR 79 75 88% 83 30.05 1016.1
15 00:56 Calm 10.00 Fair CLR 80.1 75 86 80.1 85% 85 30.09 1017.2
14 22:56 Calm 10.00 Fair CLR 82 75 79% 89 30.08 1017.2
14 21:56 Calm 10.00 Fair CLR 82 75 79% 89 30.08 1017.1
14 20:56 Calm 10.00 Fair CLR 82.9 73.9 74% 89 30.09 1017.3
14 19:56 Calm 10.00 Fair CLR 82 73.9 77% 88 30.07 1016.8
14 18:56 Calm 10.00 Fair CLR 86 72 93.9 84.9 63% 92 30.06 1016.5
14 17:56 S 7 10.00 Thunderstorm CLR 87.1 75.9 70% 98 30.06 1016.5
14 16:56 Calm 10.00 Thunderstorm CLR 89.1 75.9 65% 100 30.07 1016.6
14 15:56 S 10 G 18 10.00 A Few Clouds FEW090 90 77 66% 103 30.06 1016.5
14 14:56 S 9 10.00 Fair CLR 91 78.1 66% 106 30.07 1016.7
14 13:56 S 5 10.00 Fair CLR 93.9 72 49% 102 30.1 1017.8
14 12:56 W 5 10.00 Fair CLR 91.9 69.1 93 77 47% 97 30.13 1018.6
14 11:56 W 3 10.00 Fair CLR 91.9 70 49% 98 30.14 1019.2
14 10:56 E 5 10.00 Fair CLR 90 73.9 59% 99 30.16 1019.6
14 09:56 Vrbl 3 10.00 Fair CLR 89.1 75.9 65% 100 30.16 1019.9
14 08:56 Calm 10.00 Fair CLR 86 77 75% 97 30.16 1019.7
14 07:56 Calm 8.00 Fair CLR 81 77 88% 88 30.16 1019.7
14 06:56 Calm 7.00 Fair CLR 77 75 78.1 75 94% 78 30.16 1019.7
14 05:56 Calm 8.00 Fair CLR 75.9 73.9 94% 75 30.14 1019.1
14 04:56 Calm 8.00 Fair CLR 75 73 94% 73 30.12 1018.3
14 00:56 Calm 10.00 Fair CLR 78.1 75 84.9 78.1 90% 81 30.14 1019.2
13 23:56 Calm 10.00 Fair CLR 79 75.9 90% 83 30.16 1019.6
13 22:56 Calm 10.00 Fair CLR 81 77 88% 88 30.16 1019.8
13 21:56 Calm 10.00 Fair CLR 82 77 85% 90 30.17 1019.9
13 20:56 Calm 10.00 Fair CLR 82.9 77 82% 92 30.15 1019.4
13 19:56 S 5 10.00 Fair CLR 82 75 79% 89 30.14 1018.9
13 18:56 Calm 10.00 Fair CLR 84.9 73.9 93.9 84 70% 92 30.14 1018.9
13 16:56 Vrbl 3 10.00 Thunderstorm in Vicinity CLR 90 73 58% 98 30.13 1018.8
13 15:56 Vrbl 7 10.00 Fair CLR 90 75 62% 100 30.12 1018.3
13 14:56 Vrbl 6 10.00 A Few Clouds FEW100 90 75.9 63% 102 30.14 1019.1
13 13:56 Vrbl 5 10.00 Fair CLR 93 73 52% 102 30.16 1019.8
13 12:56 N 3 10.00 Mostly Cloudy BKN038 BKN047 91 73.9 91 75.9 57% 101 30.18 1020.3
13 11:56 Calm 10.00 A Few Clouds FEW031 90 73.9 59% 99 30.18 1020.6
13 10:56 N 5 10.00 A Few Clouds FEW027 89.1 75 63% 99 30.19 1020.8
13 09:56 NW 5 10.00 Fair CLR 86 75.9 72% 96 30.2 1021.0
13 08:56 Vrbl 5 10.00 Fair CLR 84.9 77 77% 95 30.2 1021.0
13 06:56 Calm 9.00 Fair CLR 75.9 73.9 75.9 73 94% 75 30.17 1020.1
13 05:56 Calm 8.00 Fair CLR 73.9 72 94% 30.15 1019.3
13 04:56 Calm 5.00 Fog/Mist CLR 73.9 72 94% 30.13 1018.6
13 03:56 Calm 6.00 Fog/Mist CLR 73.9 72 94% 30.12 1018.2
13 02:56 Calm 6.00 Fog/Mist CLR 75 72 90% 74 30.1 1017.6
13 01:56 Calm 5.00 Fog/Mist CLR 75 73 94% 73 30.1 1017.8
13 00:56 Calm 10.00 Fair CLR 75.9 73.9 79 75 94% 75 30.12 1018.2
12 23:56 Calm 10.00 Fair CLR 75.9 73.9 94% 75 30.12 1018.4
12 22:56 Calm 8.00 Mostly Cloudy FEW040 SCT100 BKN120 77 73.9 90% 78 30.12 1018.5
12 21:56 Calm 10.00 Mostly Cloudy BKN080 BKN100 79 73 82% 82 30.12 1018.3
12 20:56 W 5 10.00 Mostly Cloudy SCT045 BKN085 77 73 88% 78 30.1 1017.7
12 19:56 Vrbl 3 10.00 Mostly Cloudy FEW030 BKN060 BKN095 77 72 85% 78 30.09 1017.5
12 18:56 W 7 6.00 Light Rain Fog/Mist SCT030 BKN045 BKN080 75.9 72 93.9 75 88% 76 30.1 1017.8
12 18:35 W 7 G 17 4.00 Thunderstorm Light Rain Fog/Mist SCT029CB BKN045 BKN080 75.9 70 82% 77 30.09 0.0
12 18:03 Vrbl 6 1.25 Thunderstorm Heavy Rain Fog/Mist SCT020CB BKN040 BKN070 77 73.4 89% 78 30.08 0.0
12 17:56 N 9 G 18 3.00 Thunderstorm Heavy Rain Fog/Mist SCT028CB BKN040 BKN065 75.9 72 88% 76 30.08 1017.2
12 16:56 N 21 G 30 4.00 Thunderstorm Heavy Rain and Breezy BKN045CB BKN080 81 73.9 79% 86 30.06 1016.6
12 15:56 S 6 G 16 10.00 Mostly Cloudy BKN045 BKN090 89.1 72 57% 96 30.05 1015.9
12 14:56 Vrbl 3 10.00 Mostly Cloudy SCT050TCU SCT100 BKN250 89.1 72 57% 96 30.06 1016.3
12 13:56 Vrbl 5 10.00 Mostly Cloudy SCT047 SCT090 BKN250 93 69.1 46% 98 30.08 1016.9
12 12:56 Calm 10.00 Mostly Cloudy BKN048 BKN070 89.1 72 93.9 77 57% 96 30.09 1017.5
12 11:56 Vrbl 5 10.00 Partly Cloudy FEW043 FEW100 SCT250 93 70 47% 99 30.1 1017.6
12 10:56 N 6 10.00 Partly Cloudy FEW043 FEW100 SCT250 90 72 56% 97 30.1 1017.5
12 09:56 Calm 10.00 A Few Clouds FEW041 FEW250 87.1 72 61% 94 30.09 1017.4
Date Time (cdt) Wind (mph) Vis. (mi.) Weather Sky Cond. Air Dwpt Max. Min. Relative Humidity Wind Chill (°F) Heat Index (°F) altimeter (in) sea level (mb) 1 hr 3 hr 6 hr
6 hour
Temperature (ºF) Pressure Precipitation (in)